Location: Newark
(54.1978°N, 18.3264°E)
Time: 20:28:17
(UTC+00:00)

OTV 5 (USA 277) - Pass Details

Date: 03 September 2019
Orbit: 310 x 324 km, 54.5° (Epoch: 17 October)

Event Time Altitude Azimuth Distance (km) Brightness Sun altitude
Rises 20:21:17 0° 284° (WNW) 2,044 ? -21.3°
Reaches altitude 10° 20:23:18 10° 276° (W) 1,211 ? -21.5°
Enters shadow 20:24:10 17° 268° (W) 882 ? -21.6°
